Date,TemperatureHighF,TemperatureAvgF,TemperatureLowF,DewpointHighF,DewpointAvgF,DewpointLowF,HumidityHigh,HumidityAvg,HumidityLow,PressureMaxIn,PressureMinIn,WindSpeedMaxMPH,WindSpeedAvgMPH,GustSpeedMaxMPH,PrecipitationSumIn
2013-12-1,53,41,32,27,26,25,78,59,37,0.00,40.00,4,3,9,0.00
2013-12-2,52,47,43,27,25,23,52,42,32,0.00,40.00,6,4,13,0.00
2013-12-3,49,30,21,32,24,19,95,84,39,0.00,40.00,8,4,12,0.00
2013-12-4,20,16,8,18,8,2,93,71,54,0.00,40.00,5,3,7,0.00
2013-12-5,12,3,-6,0,-4,-11,83,74,57,0.00,40.00,4,3,5,0.00
2013-12-6,12,4,-5,1,-3,-10,81,73,59,0.00,40.00,5,3,6,0.00
2013-12-7,27,22,19,23,11,-100,86,73,68,0.00,40.00,8,5,12,0.00
2013-12-8,19,13,7,13,5,0,86,71,55,0.00,40.00,4,3,6,0.00
2013-12-9,17,8,-1,5,0,-5,85,73,52,0.00,40.00,5,2,7,0.00
2013-12-10,12,5,-4,3,-2,-8,80,71,57,0.00,40.00,4,2,5,0.00
2013-12-11,19,10,2,6,2,-3,81,69,55,0.00,40.00,4,-36,5,0.00
2013-12-12,19,10,1,9,4,-3,85,76,63,0.00,40.00,3,-134,4,0.00
2013-12-13,18,11,1,13,6,-1,91,83,73,0.00,40.00,3,2,5,0.00
2013-12-14,24,18,14,16,9,-100,89,81,71,0.00,40.00,5,3,6,0.00
2013-12-15,23,15,10,15,11,7,90,83,72,0.00,40.00,4,2,6,0.00
2013-12-16,28,20,11,17,13,8,91,78,64,0.00,40.00,3,1,4,0.00
2013-12-17,28,19,12,18,13,8,91,79,66,0.00,40.00,4,3,5,0.00
2013-12-18,40,32,26,36,23,18,84,68,60,0.00,40.00,7,3,11,0.09
2013-12-19,40,35,30,37,33,28,93,88,83,0.00,40.00,7,4,11,0.04
2013-12-20,30,26,20,25,20,17,89,80,63,0.00,40.00,5,3,7,0.00
2013-12-21,29,25,23,25,19,-100,91,84,81,0.00,40.00,5,2,8,0.02
2013-12-23,40,33,29,31,29,27,93,85,68,0.00,40.00,3,2,6,0.00
2013-12-24,40,37,28,31,25,18,72,64,46,0.00,40.00,5,4,11,0.00
2013-12-25,32,24,19,17,16,14,82,72,52,0.00,40.00,3,3,4,0.00
2013-12-26,30,19,13,18,15,11,92,83,53,0.00,40.00,3,2,5,0.00
2013-12-27,32,23,17,18,16,14,90,76,52,0.00,40.00,3,2,6,0.00
2013-12-28,31,24,19,21,13,-100,88,74,64,0.00,40.00,4,3,7,0.00
2013-12-29,25,21,16,19,16,13,90,83,75,0.00,40.00,4,2,5,0.00
2013-12-30,29,21,14,18,15,12,90,80,61,0.00,40.00,3,2,4,0.00
2013-12-31,33,29,23,22,20,17,78,71,60,0.00,40.00,4,3,4,0.00